Home > Weather > Abeokuta > Past weeks

Flag for Nigeria Past Weather in Abeokuta, Nigeria — Yesterday and Last 2 Weeks

Now
77 °F

Passing clouds.


Feels Like: 78 °F
Forecast: 74 / 85 °F
Wind: 2 mph from North

Location: Lagos / Ikeja

Current Time: Jun 29, 2016 at 4:44:49 AM

Latest Report: Jun 29, 2016 at 4:00 AM


Visibility: 4 mi

Pressure: 30.01 "Hg

Humidity: 89%

Dew Point: 73 °F

Location of AbeokutaLocation

Past Weather in Abeokuta — Graph

°F

Abeokuta Temperature Yesterday

Maximum temperature yesterday: 86 °F (at 2:00 PM)
Minimum temperature yesterday: 75 °F (at 3:00 AM)
Average temperature yesterday: 80 °F

High & Low Weather Summary for the Past Weeks

 TemperatureHumidityPressure
High90 °F (Jun 18, 4:00 PM)100% (Jun 15, 8:00 AM)30.09 "Hg (Jun 15, 8:00 AM)
Low72 °F (Jun 16, 6:00 AM)66% (Jun 16, 4:00 PM)29.89 "Hg (Jun 19, 4:00 PM)
Average79 °F88%30.01 "Hg
* Reported Jun 14 3:00 AM — Jun 29 3:00 AM, Abeokuta, Weather by CustomWeather, © 2016

Note: Actual official high and low records may vary slightly from our data, if they occured in-between our weather recording intervals... More about our weather records

Advertising

Abeokuta Weather History for the Previous 24 Hours

Scroll right to see more
 ConditionsComfort  
Time TempWeatherWind HumidityBarometerVisibility
3:00 AM
Wed, Jun 29
79 °FPassing clouds.2 mph84%30.01 "Hg5 mi
2:00 AM79 °FPassing clouds.No wind84%30.01 "Hg5 mi
1:00 AM79 °FPassing clouds.No wind84%30.04 "Hg5 mi
12:00 AM79 °FPassing clouds.2 mph84%30.04 "Hg5 mi
10:00 PM
Tue, Jun 28
79 °FPassing clouds.2 mph84%30.04 "HgN/A
9:00 PM81 °FPassing clouds.2 mph79%30.04 "HgN/A
8:00 PM81 °FPassing clouds.2 mph79%30.01 "Hg5 mi
7:01 PM81 °FScattered clouds.7 mph79%29.98 "Hg5 mi
7:00 PM81 °FScattered clouds.7 mph79%29.98 "Hg5 mi
6:00 PM82 °FLight rain. Partly sunny.6 mph74%29.98 "HgN/A
5:00 PM84 °FPartly sunny.10 mph70%29.98 "HgN/A
4:00 PM86 °FPartly sunny.6 mph70%29.98 "HgN/A
3:00 PM86 °FPartly sunny.8 mph70%30.01 "HgN/A
2:00 PM86 °FPartly sunny.9 mph70%30.01 "HgN/A
1:00 PM82 °FPartly sunny.9 mph74%30.04 "HgN/A
12:00 PM84 °FPartly sunny.5 mph79%30.04 "HgN/A
11:00 AM82 °FScattered clouds.3 mph79%30.07 "HgN/A
7:00 AM75 °FPassing clouds.No wind100%30.04 "Hg4 mi
6:00 AM75 °FPassing clouds.No wind100%30.01 "Hg4 mi
5:00 AM75 °FPassing clouds.2 mph100%30.01 "Hg4 mi
4:00 AM75 °FPassing clouds.2 mph100%30.01 "Hg4 mi
Weather by CustomWeather, © 2016

See weather overviewHow to use our weather pages